{"data":{"norad_id":58405,"epoch":"2026-09-20T01:50:04.394400Z","epoch_age_seconds":180190,"freshness":"STALE","line1":"1 58405U 23180D   26263.07643975 -.00000462  00000+0 -72478-5 0  9992","line2":"2 58405  43.0029  34.8716 0001582 271.2497  88.8174 15.27577549157246","mean_motion":15.27577549,"eccentricity":0.0001582,"inclination_deg":43.0029,"raan_deg":34.8716,"arg_perigee_deg":271.2497,"mean_anomaly_deg":88.8174,"bstar":-7.2478e-6,"rev_number":15724,"period_min":94.266899964762,"perigee_km":481.97099442376,"apogee_km":484.14187602666,"semimajor_km":6861.1934352252,"source":"CELESTRAK","updated_at":"2026-09-21T09:00:33.869963Z"}}